Year,Month,Day,Hour,Minute,Value (Times are PST for temperature in C)
2018,04,26,00,00,10.10
2018,04,26,00,01,10.10
2018,04,26,00,02,10.10
2018,04,26,00,03,10.10
2018,04,26,00,04,10.10
2018,04,26,00,05,10.10
2018,04,26,00,06,10.10
2018,04,26,00,07,10.00
2018,04,26,00,08,10.00
2018,04,26,00,09,10.00
2018,04,26,00,10,10.00
2018,04,26,00,11,9.90
2018,04,26,00,12,9.90
2018,04,26,00,13,9.90
2018,04,26,00,14,9.90
2018,04,26,00,15,9.90
2018,04,26,00,16,9.80
2018,04,26,00,17,9.80
2018,04,26,00,18,9.80
2018,04,26,00,19,9.80
2018,04,26,00,20,9.80
2018,04,26,00,21,9.80
2018,04,26,00,22,9.80
2018,04,26,00,23,9.70
2018,04,26,00,24,9.70
2018,04,26,00,25,9.70
2018,04,26,00,26,9.70
2018,04,26,00,27,9.70
2018,04,26,00,28,9.70
2018,04,26,00,29,9.70
2018,04,26,00,30,9.60
2018,04,26,00,31,9.60
2018,04,26,00,32,9.60
2018,04,26,00,33,9.60
2018,04,26,00,34,9.60
2018,04,26,00,35,9.60
2018,04,26,00,36,9.60
2018,04,26,00,37,9.60
2018,04,26,00,38,9.60
2018,04,26,00,39,9.60
2018,04,26,00,40,9.60
2018,04,26,00,41,9.60
2018,04,26,00,42,9.50
2018,04,26,00,43,9.60
2018,04,26,00,44,9.60
2018,04,26,00,45,9.60
2018,04,26,00,46,9.60
2018,04,26,00,47,9.60
2018,04,26,00,48,9.60
2018,04,26,00,49,9.50
2018,04,26,00,50,9.50
2018,04,26,00,51,9.50
2018,04,26,00,52,9.40
2018,04,26,00,53,9.40
2018,04,26,00,54,9.40
2018,04,26,00,55,9.40
2018,04,26,00,56,9.30
2018,04,26,00,57,9.30
2018,04,26,00,58,9.30
2018,04,26,00,59,9.30
2018,04,26,01,00,9.30
2018,04,26,01,01,9.30
2018,04,26,01,02,9.30
2018,04,26,01,03,9.40
2018,04,26,01,04,9.40
2018,04,26,01,05,9.30
2018,04,26,01,06,9.30
2018,04,26,01,07,9.30
2018,04,26,01,08,9.30
2018,04,26,01,09,9.30
2018,04,26,01,10,9.30
2018,04,26,01,11,9.40
2018,04,26,01,12,9.40
2018,04,26,01,13,9.40
2018,04,26,01,14,9.50
2018,04,26,01,15,9.50
2018,04,26,01,16,9.40
2018,04,26,01,17,9.40
2018,04,26,01,18,9.40
2018,04,26,01,19,9.30
2018,04,26,01,20,9.30
2018,04,26,01,21,9.30
2018,04,26,01,22,9.30
2018,04,26,01,23,9.30
2018,04,26,01,24,9.20
2018,04,26,01,25,9.20
2018,04,26,01,26,9.20
2018,04,26,01,27,9.20
2018,04,26,01,28,9.10
2018,04,26,01,29,9.10
2018,04,26,01,30,9.10
2018,04,26,01,31,9.00
2018,04,26,01,32,9.00
2018,04,26,01,33,9.00
2018,04,26,01,34,9.00
2018,04,26,01,35,8.90
2018,04,26,01,36,8.90
2018,04,26,01,37,8.90
2018,04,26,01,38,8.90
2018,04,26,01,39,8.90
2018,04,26,01,40,8.90
2018,04,26,01,41,9.00
2018,04,26,01,42,9.00
2018,04,26,01,43,9.00
2018,04,26,01,44,9.00
2018,04,26,01,45,9.00
2018,04,26,01,46,9.00
2018,04,26,01,47,9.00
2018,04,26,01,48,9.00
2018,04,26,01,49,8.90
2018,04,26,01,50,8.90
2018,04,26,01,51,8.90
2018,04,26,01,52,8.90
2018,04,26,01,53,8.90
2018,04,26,01,54,8.90
2018,04,26,01,55,8.90
2018,04,26,01,56,8.90
2018,04,26,01,57,8.90
2018,04,26,01,58,8.90
2018,04,26,01,59,8.90
2018,04,26,02,00,8.90
2018,04,26,02,01,8.90
2018,04,26,02,02,8.90
2018,04,26,02,03,8.90
2018,04,26,02,04,8.90
2018,04,26,02,05,8.80
2018,04,26,02,06,8.80
2018,04,26,02,07,8.80
2018,04,26,02,08,8.80
2018,04,26,02,09,8.70
2018,04,26,02,10,8.70
2018,04,26,02,11,8.60
2018,04,26,02,12,8.60
2018,04,26,02,13,8.60
2018,04,26,02,14,8.50
2018,04,26,02,15,8.50
2018,04,26,02,16,8.50
2018,04,26,02,17,8.60
2018,04,26,02,18,8.60
2018,04,26,02,19,8.60
2018,04,26,02,20,8.60
2018,04,26,02,21,8.70
2018,04,26,02,22,8.70
2018,04,26,02,23,8.70
2018,04,26,02,24,8.70
2018,04,26,02,25,8.70
2018,04,26,02,26,8.70
2018,04,26,02,27,8.70
2018,04,26,02,28,8.70
2018,04,26,02,29,8.60
2018,04,26,02,30,8.60
2018,04,26,02,31,8.50
2018,04,26,02,32,8.50
2018,04,26,02,33,8.40
2018,04,26,02,34,8.40
2018,04,26,02,35,8.30
2018,04,26,02,36,8.30
2018,04,26,02,37,8.20
2018,04,26,02,38,8.10
2018,04,26,02,39,8.10
2018,04,26,02,40,8.00
2018,04,26,02,41,8.00
2018,04,26,02,42,7.90
2018,04,26,02,43,7.90
2018,04,26,02,44,7.90
2018,04,26,02,45,7.90
2018,04,26,02,46,7.80
2018,04,26,02,47,7.80
2018,04,26,02,48,7.80
2018,04,26,02,49,7.80
2018,04,26,02,50,7.80
2018,04,26,02,51,7.70
2018,04,26,02,52,7.70
2018,04,26,02,53,7.70
2018,04,26,02,54,7.70
2018,04,26,02,55,7.80
2018,04,26,02,56,7.80
2018,04,26,02,57,7.90
2018,04,26,02,58,7.90
2018,04,26,02,59,7.90
2018,04,26,03,00,7.90
2018,04,26,03,01,7.90
2018,04,26,03,02,8.00
2018,04,26,03,03,8.00
2018,04,26,03,04,7.90
2018,04,26,03,05,7.90
2018,04,26,03,06,7.90
2018,04,26,03,07,7.80
2018,04,26,03,08,7.80
2018,04,26,03,09,7.80
2018,04,26,03,10,7.70
2018,04,26,03,11,7.70
2018,04,26,03,12,7.60
2018,04,26,03,13,7.60
2018,04,26,03,14,7.50
2018,04,26,03,15,7.50
2018,04,26,03,16,7.40
2018,04,26,03,17,7.40
2018,04,26,03,18,7.40
2018,04,26,03,19,7.40
2018,04,26,03,20,7.30
2018,04,26,03,21,7.30
2018,04,26,03,22,7.30
2018,04,26,03,23,7.40
2018,04,26,03,24,7.40
2018,04,26,03,25,7.40
2018,04,26,03,26,7.30
2018,04,26,03,27,7.30
2018,04,26,03,28,7.30
2018,04,26,03,29,7.30
2018,04,26,03,30,7.30
2018,04,26,03,31,7.30
2018,04,26,03,32,7.20
2018,04,26,03,33,7.20
2018,04,26,03,34,7.20
2018,04,26,03,35,7.20
2018,04,26,03,36,7.20
2018,04,26,03,37,7.10
2018,04,26,03,38,7.10
2018,04,26,03,39,7.10
2018,04,26,03,40,7.10
2018,04,26,03,41,7.10
2018,04,26,03,42,7.10
2018,04,26,03,43,7.10
2018,04,26,03,44,7.10
2018,04,26,03,45,7.10
2018,04,26,03,46,7.10
2018,04,26,03,47,7.10
2018,04,26,03,48,7.10
2018,04,26,03,49,7.10
2018,04,26,03,50,7.10
2018,04,26,03,51,7.10
2018,04,26,03,52,7.10
2018,04,26,03,53,7.10
2018,04,26,03,54,7.10
2018,04,26,03,55,7.10
2018,04,26,03,56,7.10
2018,04,26,03,57,7.10
2018,04,26,03,58,7.10
2018,04,26,03,59,7.20
2018,04,26,04,00,7.20
2018,04,26,04,01,7.20
2018,04,26,04,02,7.10
2018,04,26,04,03,7.20
2018,04,26,04,04,7.20
2018,04,26,04,05,7.20
2018,04,26,04,06,7.20
2018,04,26,04,07,7.20
2018,04,26,04,08,7.20
2018,04,26,04,09,7.20
2018,04,26,04,10,7.20
2018,04,26,04,11,7.20
2018,04,26,04,12,7.20
2018,04,26,04,13,7.20
2018,04,26,04,14,7.20
2018,04,26,04,15,7.20
2018,04,26,04,16,7.20
2018,04,26,04,17,7.20
2018,04,26,04,18,7.20
2018,04,26,04,19,7.10
2018,04,26,04,20,7.10
2018,04,26,04,21,7.10
2018,04,26,04,22,7.10
2018,04,26,04,23,7.10
2018,04,26,04,24,7.10
2018,04,26,04,25,7.10
2018,04,26,04,26,7.10
2018,04,26,04,27,7.10
2018,04,26,04,28,7.10
2018,04,26,04,29,7.10
2018,04,26,04,30,7.00
2018,04,26,04,31,7.00
2018,04,26,04,32,7.00
2018,04,26,04,33,7.00
2018,04,26,04,34,7.00
2018,04,26,04,35,7.00
2018,04,26,04,36,7.00
2018,04,26,04,37,6.90
2018,04,26,04,38,6.90
2018,04,26,04,39,6.90
2018,04,26,04,40,6.90
2018,04,26,04,41,6.90
2018,04,26,04,42,6.90
2018,04,26,04,43,6.90
2018,04,26,04,44,6.90
2018,04,26,04,45,6.80
2018,04,26,04,46,6.80
2018,04,26,04,47,6.80
2018,04,26,04,48,6.80
2018,04,26,04,49,6.70
2018,04,26,04,50,6.70
2018,04,26,04,51,6.70
2018,04,26,04,52,6.70
2018,04,26,04,53,6.60
2018,04,26,04,54,6.60
2018,04,26,04,55,6.50
2018,04,26,04,56,6.50
2018,04,26,04,57,6.50
2018,04,26,04,58,6.40
2018,04,26,04,59,6.40
2018,04,26,05,00,6.40
2018,04,26,05,01,6.40
2018,04,26,05,02,6.30
2018,04,26,05,03,6.30
2018,04,26,05,04,6.30
2018,04,26,05,05,6.30
2018,04,26,05,06,6.30
2018,04,26,05,07,6.30
2018,04,26,05,08,6.30
2018,04,26,05,09,6.30
2018,04,26,05,10,6.30
2018,04,26,05,11,6.30
2018,04,26,05,12,6.30
2018,04,26,05,13,6.30
2018,04,26,05,14,6.20
2018,04,26,05,15,6.20
2018,04,26,05,16,6.20
2018,04,26,05,17,6.20
2018,04,26,05,18,6.20
2018,04,26,05,19,6.20
2018,04,26,05,20,6.30
2018,04,26,05,21,6.30
2018,04,26,05,22,6.30
2018,04,26,05,23,6.30
2018,04,26,05,24,6.30
2018,04,26,05,25,6.30
2018,04,26,05,26,6.30
2018,04,26,05,27,6.30
2018,04,26,05,28,6.30
2018,04,26,05,29,6.30
2018,04,26,05,30,6.30
2018,04,26,05,31,6.30
2018,04,26,05,32,6.30
2018,04,26,05,33,6.30
2018,04,26,05,34,6.30
2018,04,26,05,35,6.30
2018,04,26,05,36,6.30
2018,04,26,05,37,6.30
2018,04,26,05,38,6.30
2018,04,26,05,39,6.30
2018,04,26,05,40,6.30
2018,04,26,05,41,6.40
2018,04,26,05,42,6.40
2018,04,26,05,43,6.40
2018,04,26,05,44,6.40
2018,04,26,05,45,6.40
2018,04,26,05,46,6.40
2018,04,26,05,47,6.40
2018,04,26,05,48,6.40
2018,04,26,05,49,6.30
2018,04,26,05,50,6.30
2018,04,26,05,51,6.30
2018,04,26,05,52,6.30
2018,04,26,05,53,6.30
2018,04,26,05,54,6.30
2018,04,26,05,55,6.30
2018,04,26,05,56,6.30
2018,04,26,05,57,6.30
2018,04,26,05,58,6.20
2018,04,26,05,59,6.20
2018,04,26,06,00,6.20
2018,04,26,06,01,6.10
2018,04,26,06,02,6.10
2018,04,26,06,03,6.10
2018,04,26,06,04,6.10
2018,04,26,06,05,6.00
2018,04,26,06,06,6.00
2018,04,26,06,07,6.00
2018,04,26,06,08,6.00
2018,04,26,06,09,5.90
2018,04,26,06,10,5.90
2018,04,26,06,11,5.90
2018,04,26,06,12,5.90
2018,04,26,06,13,5.80
2018,04,26,06,14,5.80
2018,04,26,06,15,5.80
2018,04,26,06,16,5.80
2018,04,26,06,17,5.80
2018,04,26,06,18,5.80
2018,04,26,06,19,5.80
2018,04,26,06,20,5.80
2018,04,26,06,21,5.80
2018,04,26,06,22,5.80
2018,04,26,06,23,5.80
2018,04,26,06,24,5.80
2018,04,26,06,25,5.80
2018,04,26,06,26,5.80
2018,04,26,06,27,5.70
2018,04,26,06,28,5.70
2018,04,26,06,29,5.70
2018,04,26,06,30,5.70
2018,04,26,06,31,5.70
2018,04,26,06,32,5.70
2018,04,26,06,33,5.70
2018,04,26,06,34,5.70
2018,04,26,06,35,5.70
2018,04,26,06,36,5.70
2018,04,26,06,37,5.70
2018,04,26,06,38,5.70
2018,04,26,06,39,5.70
2018,04,26,06,40,5.70
2018,04,26,06,41,5.70
2018,04,26,06,42,5.80
2018,04,26,06,43,5.80
2018,04,26,06,44,5.80
2018,04,26,06,45,5.80
2018,04,26,06,46,5.80
2018,04,26,06,47,5.80
2018,04,26,06,48,5.80
2018,04,26,06,49,5.80
2018,04,26,06,50,5.80
2018,04,26,06,51,5.80
2018,04,26,06,52,5.90
2018,04,26,06,53,5.90
2018,04,26,06,54,5.90
2018,04,26,06,55,5.90
2018,04,26,06,56,6.00
2018,04,26,06,57,6.00
2018,04,26,06,58,6.00
2018,04,26,06,59,6.10
2018,04,26,07,00,6.10
2018,04,26,07,01,6.10
2018,04,26,07,02,6.20
2018,04,26,07,03,6.20
2018,04,26,07,04,6.20
2018,04,26,07,05,6.30
2018,04,26,07,06,6.30
2018,04,26,07,07,6.40
2018,04,26,07,08,6.40
2018,04,26,07,09,6.40
2018,04,26,07,10,6.50
2018,04,26,07,11,6.60
2018,04,26,07,12,6.70
2018,04,26,07,13,6.70
2018,04,26,07,14,6.70
2018,04,26,07,15,6.80
2018,04,26,07,16,6.80
2018,04,26,07,17,6.90
2018,04,26,07,18,7.00
2018,04,26,07,19,7.10
2018,04,26,07,20,7.10
2018,04,26,07,21,7.20
2018,04,26,07,22,7.30
2018,04,26,07,23,7.50
2018,04,26,07,24,7.60
2018,04,26,07,25,7.70
2018,04,26,07,26,7.80
2018,04,26,07,27,7.90
2018,04,26,07,28,8.10
2018,04,26,07,29,8.20
2018,04,26,07,30,8.30
2018,04,26,07,31,8.40
2018,04,26,07,32,8.50
2018,04,26,07,33,8.50
2018,04,26,07,34,8.60
2018,04,26,07,35,8.70
2018,04,26,07,36,8.80
2018,04,26,07,37,8.90
2018,04,26,07,38,9.00
2018,04,26,07,39,9.10
2018,04,26,07,40,9.10
2018,04,26,07,41,9.20
2018,04,26,07,42,9.30
2018,04,26,07,43,9.30
2018,04,26,07,44,9.40
2018,04,26,07,45,9.40
2018,04,26,07,46,9.50
2018,04,26,07,47,9.50
2018,04,26,07,48,9.50
2018,04,26,07,49,9.60
2018,04,26,07,50,9.60
2018,04,26,07,51,9.60
2018,04,26,07,52,9.60
2018,04,26,07,53,9.60
2018,04,26,07,54,9.60
2018,04,26,07,55,9.60
2018,04,26,07,56,9.60
2018,04,26,07,57,9.60
2018,04,26,07,58,9.70
2018,04,26,07,59,9.70
2018,04,26,08,00,9.70
2018,04,26,08,01,9.70
2018,04,26,08,02,9.80
2018,04,26,08,03,9.80
2018,04,26,08,04,9.90
2018,04,26,08,05,10.00
2018,04,26,08,06,10.00
2018,04,26,08,07,10.10
2018,04,26,08,08,10.10
2018,04,26,08,09,10.10
2018,04,26,08,10,10.10
2018,04,26,08,11,10.20
2018,04,26,08,12,10.20
2018,04,26,08,13,10.20
2018,04,26,08,14,10.20
2018,04,26,08,15,10.20
2018,04,26,08,16,10.30
2018,04,26,08,17,10.30
2018,04,26,08,18,10.30
2018,04,26,08,19,10.30
2018,04,26,08,20,10.40
2018,04,26,08,21,10.40
2018,04,26,08,22,10.40
2018,04,26,08,23,10.40
2018,04,26,08,24,10.40
2018,04,26,08,25,10.40
2018,04,26,08,26,10.50
2018,04,26,08,27,10.50
2018,04,26,08,28,10.50
2018,04,26,08,29,10.60
2018,04,26,08,30,10.60
2018,04,26,08,31,10.70
2018,04,26,08,32,10.70
2018,04,26,08,33,10.80
2018,04,26,08,34,10.80
2018,04,26,08,35,10.80
2018,04,26,08,36,10.80
2018,04,26,08,37,10.80
2018,04,26,08,38,10.80
2018,04,26,08,39,10.80
2018,04,26,08,40,10.80
2018,04,26,08,41,10.80
2018,04,26,08,42,10.80
2018,04,26,08,43,10.80
2018,04,26,08,44,10.80
2018,04,26,08,45,10.90
2018,04,26,08,46,10.90
2018,04,26,08,47,10.90
2018,04,26,08,48,10.90
2018,04,26,08,49,10.90
2018,04,26,08,50,10.90
2018,04,26,08,51,10.90
2018,04,26,08,52,11.00
2018,04,26,08,53,11.00
2018,04,26,08,54,11.00
2018,04,26,08,55,11.00
2018,04,26,08,56,11.00
2018,04,26,08,57,11.00
2018,04,26,08,58,11.00
2018,04,26,08,59,11.10
2018,04,26,09,00,11.10
2018,04,26,09,01,11.10
2018,04,26,09,02,11.20
2018,04,26,09,03,11.20
2018,04,26,09,04,11.20
2018,04,26,09,05,11.20
2018,04,26,09,06,11.20
2018,04,26,09,07,11.20
2018,04,26,09,08,11.30
2018,04,26,09,09,11.30
2018,04,26,09,10,11.40
2018,04,26,09,11,11.40
2018,04,26,09,12,11.50
2018,04,26,09,13,11.60
2018,04,26,09,14,11.60
2018,04,26,09,15,11.70
2018,04,26,09,16,11.70
2018,04,26,09,17,11.70
2018,04,26,09,18,11.70
2018,04,26,09,19,11.70
2018,04,26,09,20,11.70
2018,04,26,09,21,11.70
2018,04,26,09,22,11.70
2018,04,26,09,23,11.80
2018,04,26,09,24,11.80
2018,04,26,09,25,11.80
2018,04,26,09,26,11.80
2018,04,26,09,27,11.80
2018,04,26,09,28,11.90
2018,04,26,09,29,11.90
2018,04,26,09,30,11.90
2018,04,26,09,31,11.90
2018,04,26,09,32,12.00
2018,04,26,09,33,12.10
2018,04,26,09,34,12.10
2018,04,26,09,35,12.10
2018,04,26,09,36,12.20
2018,04,26,09,37,12.20
2018,04,26,09,38,12.20
2018,04,26,09,39,12.30
2018,04,26,09,40,12.30
2018,04,26,09,41,12.40
2018,04,26,09,42,12.40
2018,04,26,09,43,12.50
2018,04,26,09,44,12.60
2018,04,26,09,45,12.60
2018,04,26,09,46,12.70
2018,04,26,09,47,12.80
2018,04,26,09,48,12.90
2018,04,26,09,49,12.90
2018,04,26,09,50,13.00
2018,04,26,09,51,13.10
2018,04,26,09,52,13.20
2018,04,26,09,53,13.20
2018,04,26,09,54,13.20
2018,04,26,09,55,13.20
2018,04,26,09,56,13.20
2018,04,26,09,57,13.10
2018,04,26,09,58,13.10
2018,04,26,09,59,13.10
2018,04,26,10,00,13.10
2018,04,26,10,01,13.10
2018,04,26,10,02,13.00
2018,04,26,10,03,13.00
2018,04,26,10,04,13.00
2018,04,26,10,05,13.00
2018,04,26,10,06,13.10
2018,04,26,10,07,13.10
2018,04,26,10,08,13.20
2018,04,26,10,09,13.30
2018,04,26,10,10,13.30
2018,04,26,10,11,13.40
2018,04,26,10,12,13.50
2018,04,26,10,13,13.60
2018,04,26,10,14,13.70
2018,04,26,10,15,13.80
2018,04,26,10,16,13.80
2018,04,26,10,17,13.90
2018,04,26,10,18,13.90
2018,04,26,10,19,14.00
2018,04,26,10,20,14.10
2018,04,26,10,21,14.10
2018,04,26,10,22,14.20
2018,04,26,10,23,14.30
2018,04,26,10,24,14.30
2018,04,26,10,25,14.40
2018,04,26,10,26,14.40
2018,04,26,10,27,14.50
2018,04,26,10,28,14.50
2018,04,26,10,29,14.60
2018,04,26,10,30,14.60
2018,04,26,10,31,14.70
2018,04,26,10,32,14.80
2018,04,26,10,33,14.80
2018,04,26,10,34,14.80
2018,04,26,10,35,14.90
2018,04,26,10,36,14.80
2018,04,26,10,37,14.80
2018,04,26,10,38,14.80
2018,04,26,10,39,14.80
2018,04,26,10,40,14.90
2018,04,26,10,41,14.90
2018,04,26,10,42,14.90
2018,04,26,10,43,14.90
2018,04,26,10,44,15.00
2018,04,26,10,45,15.00
2018,04,26,10,46,15.10
2018,04,26,10,47,15.20
2018,04,26,10,48,15.30
2018,04,26,10,49,15.40
2018,04,26,10,50,15.50
2018,04,26,10,51,15.50
2018,04,26,10,52,15.50
2018,04,26,10,53,15.60
2018,04,26,10,54,15.60
2018,04,26,10,55,15.60
2018,04,26,10,56,15.60
2018,04,26,10,57,15.60
2018,04,26,10,58,15.60
2018,04,26,10,59,15.60
2018,04,26,11,00,15.60
2018,04,26,11,01,15.70
2018,04,26,11,02,15.80
2018,04,26,11,03,15.80
2018,04,26,11,04,15.90
2018,04,26,11,05,16.00
2018,04,26,11,06,16.10
2018,04,26,11,07,16.10
2018,04,26,11,08,16.20
2018,04,26,11,09,16.20
2018,04,26,11,10,16.30
2018,04,26,11,11,16.30
2018,04,26,11,12,16.30
2018,04,26,11,13,16.30
2018,04,26,11,14,16.30
2018,04,26,11,15,16.30
2018,04,26,11,16,16.30
2018,04,26,11,17,16.30
2018,04,26,11,18,16.40
2018,04,26,11,19,16.50
2018,04,26,11,20,16.50
2018,04,26,11,21,16.60
2018,04,26,11,22,16.50
2018,04,26,11,23,16.50
2018,04,26,11,24,16.40
2018,04,26,11,25,16.40
2018,04,26,11,26,16.30
2018,04,26,11,27,16.30
2018,04,26,11,28,16.40
2018,04,26,11,29,16.30
2018,04,26,11,30,16.30
2018,04,26,11,31,16.40
2018,04,26,11,32,16.40
2018,04,26,11,33,16.50
2018,04,26,11,34,16.50
2018,04,26,11,35,16.60
2018,04,26,11,36,16.60
2018,04,26,11,37,16.60
2018,04,26,11,38,16.70
2018,04,26,11,39,16.70
2018,04,26,11,40,16.70
2018,04,26,11,41,16.70
2018,04,26,11,42,16.70
2018,04,26,11,43,16.70
2018,04,26,11,44,16.70
2018,04,26,11,45,16.70
2018,04,26,11,46,16.70
2018,04,26,11,47,16.80
2018,04,26,11,48,16.80
2018,04,26,11,49,16.80
2018,04,26,11,50,16.90
2018,04,26,11,51,16.90
2018,04,26,11,52,17.00
2018,04,26,11,53,17.00
2018,04,26,11,54,17.10
2018,04,26,11,55,17.10
2018,04,26,11,56,17.20
2018,04,26,11,57,17.30
2018,04,26,11,58,17.30
2018,04,26,11,59,17.30
2018,04,26,12,00,17.30
2018,04,26,12,01,17.40
2018,04,26,12,02,17.40
2018,04,26,12,03,17.40
2018,04,26,12,04,17.50
2018,04,26,12,05,17.50
2018,04,26,12,06,17.60
2018,04,26,12,07,17.70
2018,04,26,12,08,17.80
2018,04,26,12,09,17.90
2018,04,26,12,10,18.00
2018,04,26,12,11,18.00
2018,04,26,12,12,18.10
2018,04,26,12,13,18.30
2018,04,26,12,14,18.40
2018,04,26,12,15,18.50
2018,04,26,12,16,18.60
2018,04,26,12,17,18.60
2018,04,26,12,18,18.70
2018,04,26,12,19,18.70
2018,04,26,12,20,18.70
2018,04,26,12,21,18.70
2018,04,26,12,22,18.60
2018,04,26,12,23,18.60
2018,04,26,12,24,18.50
2018,04,26,12,25,18.50
2018,04,26,12,26,18.50
2018,04,26,12,27,18.50
2018,04,26,12,28,18.50
2018,04,26,12,29,18.50
2018,04,26,12,30,18.50
2018,04,26,12,31,18.50
2018,04,26,12,32,18.40
2018,04,26,12,33,18.40
2018,04,26,12,34,18.40
2018,04,26,12,35,18.40
2018,04,26,12,36,18.40
2018,04,26,12,37,18.40
2018,04,26,12,38,18.50
2018,04,26,12,39,18.50
2018,04,26,12,40,18.60
2018,04,26,12,41,18.60
2018,04,26,12,42,18.60
2018,04,26,12,43,18.60
2018,04,26,12,44,18.60
2018,04,26,12,45,18.70
2018,04,26,12,46,18.80
2018,04,26,12,47,18.80
2018,04,26,12,48,18.80
2018,04,26,12,49,18.80
2018,04,26,12,50,18.80
2018,04,26,12,51,18.80
2018,04,26,12,52,18.80
2018,04,26,12,53,18.80
2018,04,26,12,54,18.80
2018,04,26,12,55,18.90
2018,04,26,12,56,19.00
2018,04,26,12,57,19.00
2018,04,26,12,58,19.10
2018,04,26,12,59,19.10
2018,04,26,13,00,19.20
2018,04,26,13,01,19.20
2018,04,26,13,02,19.20
2018,04,26,13,03,19.30
2018,04,26,13,04,19.30
2018,04,26,13,05,19.40
2018,04,26,13,06,19.50
2018,04,26,13,07,19.50
2018,04,26,13,08,19.60
2018,04,26,13,09,19.60
2018,04,26,13,10,19.70
2018,04,26,13,11,19.70
2018,04,26,13,12,19.70
2018,04,26,13,13,19.70
2018,04,26,13,14,19.80
2018,04,26,13,15,19.80
2018,04,26,13,16,19.80
2018,04,26,13,17,19.80
2018,04,26,13,18,19.80
2018,04,26,13,19,19.80
2018,04,26,13,20,19.80
2018,04,26,13,21,19.80
2018,04,26,13,22,19.80
2018,04,26,13,23,19.80
2018,04,26,13,24,19.80
2018,04,26,13,25,19.80
2018,04,26,13,26,19.80
2018,04,26,13,27,19.70
2018,04,26,13,28,19.70
2018,04,26,13,29,19.70
2018,04,26,13,30,19.70
2018,04,26,13,31,19.70
2018,04,26,13,32,19.70
2018,04,26,13,33,19.60
2018,04,26,13,34,19.60
2018,04,26,13,35,19.60
2018,04,26,13,36,19.50
2018,04,26,13,37,19.50
2018,04,26,13,38,19.40
2018,04,26,13,39,19.40
2018,04,26,13,40,19.50
2018,04,26,13,41,19.50
2018,04,26,13,42,19.50
2018,04,26,13,43,19.60
2018,04,26,13,44,19.60
2018,04,26,13,45,19.70
2018,04,26,13,46,19.80
2018,04,26,13,47,19.90
2018,04,26,13,48,20.00
2018,04,26,13,49,20.00
2018,04,26,13,50,20.10
2018,04,26,13,51,20.20
2018,04,26,13,52,20.20
2018,04,26,13,53,20.30
2018,04,26,13,54,20.30
2018,04,26,13,55,20.30
2018,04,26,13,56,20.30
2018,04,26,13,57,20.40
2018,04,26,13,58,20.40
2018,04,26,13,59,20.50
2018,04,26,14,00,20.50
2018,04,26,14,01,20.60
2018,04,26,14,02,20.60
2018,04,26,14,03,20.60
2018,04,26,14,04,20.50
2018,04,26,14,05,20.50
2018,04,26,14,06,20.40
2018,04,26,14,07,20.30
2018,04,26,14,08,20.30
2018,04,26,14,09,20.20
2018,04,26,14,10,20.20
2018,04,26,14,11,20.20
2018,04,26,14,12,20.20
2018,04,26,14,13,20.20
2018,04,26,14,14,20.20
2018,04,26,14,15,20.30
2018,04,26,14,16,20.30
2018,04,26,14,17,20.30
2018,04,26,14,18,20.40
2018,04,26,14,19,20.40
2018,04,26,14,20,20.50
2018,04,26,14,21,20.50
2018,04,26,14,22,20.50
2018,04,26,14,23,20.50
2018,04,26,14,24,20.40
2018,04,26,14,25,20.50
2018,04,26,14,26,20.50
2018,04,26,14,27,20.50
2018,04,26,14,28,20.40
2018,04,26,14,29,20.50
2018,04,26,14,30,20.40
2018,04,26,14,31,20.50
2018,04,26,14,32,20.40
2018,04,26,14,33,20.40
2018,04,26,14,34,20.30
2018,04,26,14,35,20.30
2018,04,26,14,36,20.30
2018,04,26,14,37,20.20
2018,04,26,14,38,20.20
2018,04,26,14,39,20.10
2018,04,26,14,40,20.10
2018,04,26,14,41,20.10
2018,04,26,14,42,20.10
2018,04,26,14,43,20.10
2018,04,26,14,44,20.10
2018,04,26,14,45,20.20
2018,04,26,14,46,20.20
2018,04,26,14,47,20.30
2018,04,26,14,48,20.50
2018,04,26,14,49,20.60
2018,04,26,14,50,20.60
2018,04,26,14,51,20.60
2018,04,26,14,52,20.70
2018,04,26,14,53,20.70
2018,04,26,14,54,20.80
2018,04,26,14,55,20.80
2018,04,26,14,56,20.90
2018,04,26,14,57,20.90
2018,04,26,14,58,21.00
2018,04,26,14,59,21.00
2018,04,26,15,00,21.00
2018,04,26,15,01,21.00
2018,04,26,15,02,21.00
2018,04,26,15,03,21.00
2018,04,26,15,04,21.10
2018,04,26,15,05,21.10
2018,04,26,15,06,21.20
2018,04,26,15,07,21.20
2018,04,26,15,08,21.20
2018,04,26,15,09,21.20
2018,04,26,15,10,21.20
2018,04,26,15,11,21.20
2018,04,26,15,12,21.20
2018,04,26,15,13,21.30
2018,04,26,15,14,21.30
2018,04,26,15,15,21.30
2018,04,26,15,16,21.30
2018,04,26,15,17,21.30
2018,04,26,15,18,21.30
2018,04,26,15,19,21.30
2018,04,26,15,20,21.30
2018,04,26,15,21,21.30
2018,04,26,15,22,21.30
2018,04,26,15,23,21.30
2018,04,26,15,24,21.30
2018,04,26,15,25,21.30
2018,04,26,15,26,21.30
2018,04,26,15,27,21.30
2018,04,26,15,28,21.40
2018,04,26,15,29,21.40
2018,04,26,15,30,21.50
2018,04,26,15,31,21.60
2018,04,26,15,32,21.60
2018,04,26,15,33,21.70
2018,04,26,15,34,21.70
2018,04,26,15,35,21.70
2018,04,26,15,36,21.70
2018,04,26,15,37,21.80
2018,04,26,15,38,21.80
2018,04,26,15,39,21.80
2018,04,26,15,40,21.80
2018,04,26,15,41,21.80
2018,04,26,15,42,21.90
2018,04,26,15,43,21.90
2018,04,26,15,44,21.90
2018,04,26,15,45,21.90
2018,04,26,15,46,21.90
2018,04,26,15,47,21.90
2018,04,26,15,48,21.80
2018,04,26,15,49,21.80
2018,04,26,15,50,21.80
2018,04,26,15,51,21.80
2018,04,26,15,52,21.80
2018,04,26,15,53,21.90
2018,04,26,15,54,21.90
2018,04,26,15,55,22.00
2018,04,26,15,56,22.00
2018,04,26,15,57,22.10
2018,04,26,15,58,22.10
2018,04,26,15,59,22.20
2018,04,26,16,00,22.20
2018,04,26,16,01,22.10
2018,04,26,16,02,22.20
2018,04,26,16,03,22.20
2018,04,26,16,04,22.20
2018,04,26,16,05,22.30
2018,04,26,16,06,22.30
2018,04,26,16,07,22.30
2018,04,26,16,08,22.40
2018,04,26,16,09,22.40
2018,04,26,16,10,22.40
2018,04,26,16,11,22.40
2018,04,26,16,12,22.40
2018,04,26,16,13,22.40
2018,04,26,16,14,22.40
2018,04,26,16,15,22.40
2018,04,26,16,16,22.40
2018,04,26,16,17,22.40
2018,04,26,16,18,22.40
2018,04,26,16,19,22.40
2018,04,26,16,20,22.40
2018,04,26,16,21,22.40
2018,04,26,16,22,22.40
2018,04,26,16,23,22.40
2018,04,26,16,24,22.40
2018,04,26,16,25,22.50
2018,04,26,16,26,22.50
2018,04,26,16,27,22.60
2018,04,26,16,28,22.60
2018,04,26,16,29,22.60
2018,04,26,16,30,22.60
2018,04,26,16,31,22.60
2018,04,26,16,32,22.60
2018,04,26,16,33,22.60
2018,04,26,16,34,22.70
2018,04,26,16,35,22.70
2018,04,26,16,36,22.80
2018,04,26,16,37,22.80
2018,04,26,16,38,22.90
2018,04,26,16,39,22.90
2018,04,26,16,40,22.90
2018,04,26,16,41,22.90
2018,04,26,16,42,22.90
2018,04,26,16,43,22.90
2018,04,26,16,44,22.90
2018,04,26,16,45,22.80
2018,04,26,16,46,22.80
2018,04,26,16,47,22.80
2018,04,26,16,48,22.80
2018,04,26,16,49,22.80
2018,04,26,16,50,22.80
2018,04,26,16,51,22.90
2018,04,26,16,52,22.90
2018,04,26,16,53,23.00
2018,04,26,16,54,23.00
2018,04,26,16,55,23.10
2018,04,26,16,56,23.10
2018,04,26,16,57,23.20
2018,04,26,16,58,23.20
2018,04,26,16,59,23.20
2018,04,26,17,00,23.20
2018,04,26,17,01,23.20
2018,04,26,17,02,23.30
2018,04,26,17,03,23.30
2018,04,26,17,04,23.30
2018,04,26,17,05,23.30
2018,04,26,17,06,23.30
2018,04,26,17,07,23.30
2018,04,26,17,08,23.30
2018,04,26,17,09,23.40
2018,04,26,17,10,23.40
2018,04,26,17,11,23.40
2018,04,26,17,12,23.40
2018,04,26,17,13,23.40
2018,04,26,17,14,23.40
2018,04,26,17,15,23.40
2018,04,26,17,16,23.50
2018,04,26,17,17,23.50
2018,04,26,17,18,23.50
2018,04,26,17,19,23.40
2018,04,26,17,20,23.40
2018,04,26,17,21,23.30
2018,04,26,17,22,23.30
2018,04,26,17,23,23.30
2018,04,26,17,24,23.30
2018,04,26,17,25,23.30
2018,04,26,17,26,23.30
2018,04,26,17,27,23.30
2018,04,26,17,28,23.30
2018,04,26,17,29,23.20
2018,04,26,17,30,23.20
2018,04,26,17,31,23.20
2018,04,26,17,32,23.20
2018,04,26,17,33,23.20
2018,04,26,17,34,23.20
2018,04,26,17,35,23.20
2018,04,26,17,36,23.20
2018,04,26,17,37,23.20
2018,04,26,17,38,23.30
2018,04,26,17,39,23.30
2018,04,26,17,40,23.30